Location: Edinburgh
(55.9500°N, 3.1600°W)
Time: 11:06:24
(UTC+00:00)

OTV 5 (USA 277) - Visible Passes

Search period start: 18 February 2019 00:00
Search period end: 28 February 2019 00:00
Orbit: 342 x 346 km, 54.5° (Epoch: 17 February)

Date Brightness Start Highest point End Pass type
(mag) Time Alt. Az. Time Alt. Az. Time Alt. Az.
25 Feb ? 19:24:37 10° S 19:25:20 13° S 19:25:20 13° S visible
26 Feb ? 19:47:16 10° SW 19:48:37 20° SSW 19:48:37 20° SSW visible
27 Feb ? 18:37:06 10° S 18:38:54 15° SE 18:40:19 12° ESE visible
27 Feb ? 20:10:31 10° WSW 20:11:46 22° SW 20:11:46 22° SW visible
